Location: Bieg
(49.3499°N, 10.3835°E)
Time: 02:02:40
(UTC+00:00)

Cosmos 2333 Rocket - Pass Details

Date: 23 May 2024
Orbit: 839 x 863 km, 70.8° (Epoch: 12 June)

Event Time Altitude Azimuth Distance (km) Brightness Sun altitude
Rises 02:30:29 0° 326° (NW) 3,426 5.5 -7.7°
Reaches altitude 10° 02:33:05 10° 319° (NW) 2,490 4.7 -7.4°
Maximum altitude 02:38:20 39° 252° (WSW) 1,266 2.7 -6.8°
Drops below altitude 10° 02:43:35 10° 185° (S) 2,488 4.2 -6.1°
Sets 02:46:10 0° 178° (S) 3,423 5.0 -5.8°
